Regional Weather Roundup
Issued by NWS Cleveland, OH

Home | Current Version | Previous Version | Text Only | Print | Product List | Glossary Off
Versions: 1 2 3 4 5 6 7 8 9 10 11 12 13 14 15 16 17 18 19 20 21 22 23 24 25 26 27 28 29 30 31 32 33 34 35 36 37 38 39 40 41 42 43 44 45 46 47 48 49 50

000
ASUS41 KCLE 271010
RWRCLE
OHIO REGIONAL WEATHER ROUNDUP
NATIONAL WEATHER SERVICE WILMINGTON, OH
600 AM EDT THU JUL 27 2017

NOTE: "FAIR" INDICATES FEW OR NO CLOUDS BELOW 12,000 FEET WITH NO
SIGNIFICANT WEATHER AND/OR OBSTRUCTIONS TO VISIBILITY.

OHZ001>008-015>018-024>027-034-035-043-044-271100-
   NORTHWEST OHIO

CITY           SKY/WX    TMP DP  RH WIND       PRES   REMARKS
DEFIANCE       FAIR      68  64  87 CALM      29.95F
FINDLAY        FAIR      68  62  81 S6        29.95F
TOLEDO EXPRESS FAIR      66  66 100 CALM      29.95S
TOLEDO EXEC    FAIR      67  66  97 CALM      29.96S
LIMA           FAIR      68  64  87 S7        29.96F
$$

OHZ009>014-019>023-028>033-038-089-271100-
   NORTHEAST OHIO

CITY           SKY/WX    TMP DP  RH WIND       PRES   REMARKS
CLE-HOPKINS    MOCLDY    67  63  87 SE8       29.99S
CLE-LAKEFRONT  FAIR      69  63  81 SE9       29.96F
CUY CO. ARPT   NOT AVBL
LORAIN-ELYRIA  FAIR      64  59  83 CALM      29.98F
ASHTABULA      FAIR      64  64 100 S3        30.01S
AKRON-CANTON   MOCLDY    67  62  84 S3        30.01R
WOOSTER        FAIR      60  59  96 CALM      30.00F FOG
MANSFIELD      FAIR      64  62  93 S6        29.99F
YOUNGSTOWN     CLOUDY    62  60  93 CALM      30.00F
$$

OHZ042-051>053-060>062-070>072-077>081-271100-
  SOUTHWEST OHIO

CITY           SKY/WX    TMP DP  RH WIND       PRES   REMARKS
CINC-COVINGTON CLOUDY    73  72  96 S5        29.95F
CINC-LUNKEN    FAIR      71  71 100 CALM      29.96S
HAMILTON       FAIR      70  69  97 CALM      29.95F
DAYTON         CLOUDY    71  65  81 SE5       29.97S
WRIGHT-PAT AFB CLOUDY    69  67  95 NE5       29.96S
DAYTON GENERAL FAIR      71  65  81 S5        29.95F
WILMINGTON     FAIR      68  65  90 CALM      29.96F
$$

OHZ036-037-039>041-045>050-054>059-063>069-073>076-082>088-271100-
  CENTRAL AND SOUTHEAST OHIO

CITY           SKY/WX    TMP DP  RH WIND       PRES   REMARKS
COLUMBUS       CLOUDY    70  64  81 CALM      29.97F
OSU AIRPORT    MOCLDY    68  66  93 CALM      29.98S
BOLTON FIELD   MOCLDY    66  65  94 CALM      29.99S
RICKENBACK AFB FAIR      65  64  97 CALM      29.97F
NEWARK         MOCLDY    64  63  96 CALM      29.99S FOG
MARION         FAIR      65  61  87 S6        29.99R
LANCASTER      MOCLDY    66  64  93 CALM      29.98F
ZANESVILLE     FAIR      63  60  90 CALM      29.99F
NEW PHILLY     FAIR      64  64 100 CALM      30.01R FOG
$$




USA.gov is the U.S. government's official web portal to all federal, state and local government web resources and services.